Theta_e
342 345 348 350 349 349 349 347 345 342 341 332 327 327 325 323 323 321 320 319 320 322 321 321 324 328 330 330 330 329 323 322 327
340 343 346 348 348 348 349 348 344 341 342 340 329 326 326 326 326 321 317 317 317 317 320 324 332 325 326 328 329 326 325 322 325
340 343 345 347 348 348 348 347 343 341 344 346 336 329 327 326 325 322 318 319 320 320 327 332 327 323 328 328 324 324 325 326 328
340 343 344 345 346 347 346 347 345 341 344 346 346 340 333 328 324 324 320 317 318 319 320 319 320 323 326 326 325 328 329 328 328
340 341 343 344 345 346 347 347 346 345 343 344 346 347 343 331 323 324 325 319 319 319 319 320 322 324 324 326 327 327 326 326 327
340 342 342 344 344 345 346 346 345 345 346 345 346 348 348 339 325 325 328 321 321 321 320 320 321 322 323 324 327 327 328 328 327
339 339 340 342 344 345 345 345 345 346 347 348 348 348 350 346 328 331 328 323 321 320 320 321 321 322 323 324 327 329 329 329 329
339 340 339 340 341 342 343 344 345 346 346 347 347 349 350 350 336 333 327 327 321 320 321 320 322 324 325 327 331 331 328 329 327
337 338 340 340 340 341 341 341 343 344 345 346 347 350 351 342 328 328 332 336 326 322 321 322 322 326 328 330 330 330 328 328 325
337 337 337 340 340 340 341 343 343 343 343 345 347 351 351 347 331 334 335 334 336 326 321 321 322 327 332 330 327 328 328 327 325
336 336 337 337 337 338 336 336 339 342 343 344 348 350 349 347 343 339 337 334 338 333 322 324 324 328 331 332 331 330 329 327 325
335 333 332 332 332 330 329 328 330 335 339 342 348 350 349 348 343 342 336 336 338 336 330 324 329 328 330 330 331 331 328 328 327
332 332 332 332 332 331 330 330 329 334 341 346 348 348 348 348 344 341 337 337 337 336 333 330 332 329 331 331 331 329 327 326 327
334 334 333 333 333 332 332 331 330 332 345 347 348 349 348 346 343 340 340 339 338 337 335 333 333 330 332 332 332 328 323 326 327
335 335 336 335 334 335 335 333 331 332 342 347 349 347 346 345 342 340 340 338 335 333 329 331 335 333 333 331 330 326 326 327 326
331 332 330 330 329 330 339 337 335 343 347 348 346 345 343 342 338 337 336 331 329 327 326 327 332 331 331 329 327 325 326 327 326
333 334 334 334 333 334 341 342 344 347 346 345 343 342 340 337 337 334 328 327 329 331 327 329 329 329 329 327 325 326 327 325 323
336 335 339 340 340 344 345 345 345 343 343 341 340 337 331 330 333 327 326 327 327 329 328 330 330 329 325 324 325 325 324 321 319
338 336 341 341 344 345 340 341 341 340 339 336 328 327 327 327 326 326 326 327 328 330 331 330 328 325 324 324 323 321 321 319 317
339 341 341 342 340 338 338 339 339 338 334 330 331 332 322 321 323 325 328 329 328 329 328 327 326 324 324 323 321 319 318 317 316
Wind_Speed
34 41 49 51 53 51 48 44 40 39 39 36 36 33 29 24 18 16 15 16 16 16 13 12 10 10 12 10 9 10 9 8 8
35 42 48 53 53 53 51 47 45 43 43 41 39 36 32 27 20 19 17 14 13 13 14 12 10 11 11 10 12 10 10 11 10
37 43 44 50 51 53 54 52 48 45 45 44 42 40 35 30 24 20 19 18 17 15 13 13 13 12 11 10 10 9 11 12 13
39 40 46 48 51 54 57 56 52 50 49 48 46 43 39 33 28 24 18 17 16 14 11 12 13 11 11 10 9 8 10 12 12
35 45 47 49 53 53 56 58 55 55 53 52 50 47 43 38 30 29 23 19 17 14 13 13 12 11 9 8 7 8 9 9 10
40 46 42 46 45 50 54 57 56 57 58 57 53 51 48 44 35 33 29 22 18 15 13 13 12 11 9 7 7 8 9 10 12
39 43 46 48 47 53 54 56 58 56 55 58 59 56 53 52 45 36 32 24 19 17 15 14 14 13 10 9 9 10 11 12 14
35 39 43 46 49 48 49 51 52 53 55 57 57 60 59 55 50 35 32 26 20 18 17 16 17 16 13 10 11 11 11 13 16
35 35 38 44 47 46 47 47 48 49 51 54 56 57 59 48 34 25 26 25 24 22 20 17 18 22 17 13 12 12 12 15 17
42 38 34 34 36 35 36 39 38 40 44 47 51 49 51 48 36 26 41 38 35 25 21 20 25 22 20 14 11 10 13 16 17
36 29 23 20 17 15 15 13 20 28 34 39 45 45 47 46 41 45 34 40 40 28 23 24 24 24 20 17 17 15 17 17 19
27 25 20 15 12 9 4 8 16 19 27 34 40 44 44 39 34 43 32 34 39 31 23 26 23 23 20 21 19 18 21 17 19
18 14 12 12 8 5 6 7 12 18 26 32 36 38 38 39 32 39 37 30 27 29 25 27 26 24 24 26 22 23 23 21 20
13 11 7 3 3 5 8 12 8 20 22 25 29 28 29 29 29 25 29 27 23 23 26 31 30 28 28 27 27 22 19 19 18
7 4 4 5 8 14 17 14 15 16 19 19 20 19 21 28 27 25 24 21 18 21 25 40 31 29 29 27 25 20 18 17 18
9 7 8 12 10 15 22 21 15 13 15 16 17 21 24 26 20 18 16 15 23 30 20 25 30 26 23 20 18 17 16 17 17
17 16 15 15 14 16 18 15 10 9 13 13 15 20 22 19 19 16 19 22 15 27 24 25 19 16 17 15 14 14 14 15 17
12 16 14 11 10 12 13 9 9 11 12 11 13 13 11 9 17 15 19 13 12 16 19 18 17 14 12 12 11 12 14 15 17
13 8 6 7 5 6 5 11 16 15 15 16 19 14 10 17 20 17 14 16 19 22 17 14 12 8 9 10 11 12 12 12 12
6 5 5 9 10 10 12 15 13 14 16 17 15 12 7 6 9 12 13 12 15 15 13 8 9 9 9 10 11 9 8 10 10
Wind_Direction
203 204 210 211 212 210 209 207 205 205 207 210 212 214 213 215 220 225 232 232 231 235 236 232 239 255 263 272 275 290 285 290 281
203 207 207 213 215 214 212 211 211 210 211 213 215 217 216 216 218 223 221 217 215 219 223 232 244 253 255 264 281 282 282 294 290
204 208 207 213 215 218 217 217 217 217 216 218 217 218 218 220 216 220 219 215 217 222 222 236 248 245 258 265 273 276 280 290 292
204 202 210 213 217 221 223 222 220 220 220 220 222 221 218 217 220 222 222 217 219 226 229 235 241 242 252 261 271 278 284 292 291
201 209 215 219 222 222 222 225 223 224 223 224 225 223 218 214 219 223 223 219 217 217 221 224 226 228 239 251 268 280 286 295 287
202 212 212 217 214 220 225 227 227 228 226 227 227 224 220 214 217 226 221 220 218 219 222 224 222 229 230 240 260 270 279 286 287
200 208 215 216 219 228 230 231 230 229 232 232 231 226 222 218 216 227 219 218 215 220 222 228 233 229 226 236 256 270 279 281 285
202 207 210 214 218 222 227 230 230 234 238 239 238 231 225 222 217 220 220 218 216 217 214 218 246 244 239 241 258 275 284 284 289
194 198 205 210 216 222 225 231 234 238 240 242 242 236 227 218 212 204 229 238 233 220 213 222 235 243 246 249 261 278 284 288 288
196 198 202 206 211 220 228 233 241 248 248 247 245 236 227 218 206 240 234 229 229 224 212 230 236 238 242 250 259 273 280 286 292
197 196 191 192 195 205 221 241 253 256 257 258 248 235 225 219 214 258 237 222 225 227 228 233 239 243 249 257 264 271 279 285 291
179 176 175 177 180 188 199 276 272 269 262 260 248 236 234 241 239 230 217 224 227 232 239 246 244 255 256 258 258 261 277 280 281
174 174 169 170 179 194 239 282 292 282 262 253 253 242 237 229 227 224 218 232 231 237 245 252 250 259 264 263 262 275 272 271 274
142 146 154 171 258 265 262 259 263 288 263 257 256 254 247 231 233 242 233 245 258 262 262 265 255 262 262 268 266 274 265 272 276
79 63 353 314 299 289 280 271 281 266 263 261 254 242 237 228 241 245 242 241 269 276 284 285 262 271 275 281 279 271 266 269 279
5 352 329 300 308 302 278 270 267 258 246 237 226 223 221 225 226 228 232 250 265 240 284 262 272 273 276 276 265 263 268 275 280
12 356 348 332 325 293 265 242 232 219 213 207 213 210 214 222 228 217 238 266 255 251 257 271 273 275 274 263 258 263 267 272 279
355 347 345 324 296 259 228 204 187 188 197 212 203 173 176 200 208 229 245 239 259 265 269 262 266 258 252 255 254 256 266 277 281
284 302 308 0 300 209 163 180 181 180 184 176 159 163 230 251 230 229 237 253 282 265 258 247 249 247 255 260 264 267 280 282 283
316 238 249 202 195 195 192 184 185 190 184 183 200 244 240 196 207 245 272 267 266 256 262 249 242 251 267 280 285 283 290 294 294